Location: Ravensburg
(47.7866°N, 9.6124°E)
Time: 23:26:55
(UTC+02:00)

AO-85 - Pass Details

Date: 10 March 2026
Orbit: 507 x 686 km, 64.8° (Epoch: 11 April)

Event Time Altitude Azimuth Distance (km) Brightness Sun altitude
Rises 05:51:28 0° 205° (SSW) 2,727 ? -9.8°
Reaches altitude 10° 05:53:45 10° 201° (SSW) 1,809 ? -9.4°
Maximum altitude 05:57:42 55° 123° (ESE) 637 ? -8.8°
Drops below altitude 10° 06:01:31 10° 45° (NE) 1,751 ? -8.1°
Sets 06:03:41 0° 41° (NE) 2,630 ? -7.8°
